Hilton Head Island, SC

6:42 PM EDT on May 23, 2018 (GMT -0400)
Hilton Head

Weather History for KHXD - August, 2014

Change the Weather History Date:

Saturday, August 9, 2014

  Actual Average Record
Temperature  
Mean Temperature 82 °F -  
Max Temperature 89 °F 89 °F 95 °F (1972)
Min Temperature 75 °F 72 °F 63 °F (1957)
Cooling Degree Days 17    
Growing Degree Days 32 (Base 50)    
Moisture  
Dew Point 76 °F    
Average Humidity 96    
Maximum Humidity 100    
Minimum Humidity 74    
Precipitation  
Precipitation 0.00 in - - ()
Sea Level Pressure  
Sea Level Pressure 30.02 in    
Wind  
Wind Speed 2 mph (SSW)    
Max Wind Speed 7 mph    
Max Gust Speed -    
Visibility 5 miles    
Events Rain , Thunderstorm    
Averages and records for this station are not official NWS values.
T = Trace of Precipitation, MM = Missing Value Source: NWS Daily Summary

Daily Weather History Graph

Daily Weather History Graph

Search for Another Location

Airport or City:

Astronomy

Aug. 09, 2014 Rise Set
Actual Time 6:43 AM EDT 8:13 PM EDT
Civil Twilight 6:16 AM EDT 8:39 PM EDT
Nautical Twilight 5:45 AM EDT 9:10 PM EDT
Astronomical Twilight 5:12 AM EDT 9:43 PM EDT
Moon 7:14 PM EDT (8/9) 5:22 AM EDT (8/9)
Length of Visible Light 14h 22m
Length of Day
13h 30m
Waxing Gibbous, 98% of the Moon is Illuminated
Aug 9
Waxing Gibbous
Aug 10
Full
Aug 17
Last Quarter
Aug 25
New
Sep 2
First Quarter

Hourly Weather History & Observations

Time (EDT) Temp. Heat Index Dew Point Humidity Pressure Visibility Wind Dir Wind Speed Gust Speed Precip Events Conditions
12:35 AM 75.2 °F - 75.2 °F 100% 30.05 in 5.0 mi NE 4.6 mph - 0.61 in Thunderstorm Scattered Clouds
1:15 AM 77.0 °F - 75.2 °F 94% 30.03 in 7.0 mi Calm Calm - 0.00 in Thunderstorm Clear
1:35 AM 75.2 °F - 75.2 °F 100% 30.03 in 3.0 mi Calm Calm - 0.00 in   Clear
1:55 AM 75.2 °F - 75.2 °F 100% 30.03 in 3.0 mi Calm Calm - 0.00 in   Clear
2:15 AM 77.0 °F - 75.2 °F 94% 30.03 in 4.0 mi Calm Calm - 0.00 in   Clear
2:35 AM 78.8 °F - 78.8 °F 100% 30.02 in 5.0 mi Calm Calm - 0.00 in   Clear
2:55 AM 78.8 °F - 78.8 °F 100% 30.01 in 5.0 mi South 3.5 mph - 0.00 in   Partly Cloudy
3:15 AM 78.8 °F - 78.8 °F 100% 30.01 in 5.0 mi South 4.6 mph - 0.00 in   Clear
3:35 AM 78.8 °F - 78.8 °F 100% 30.01 in 3.0 mi Calm Calm - 0.00 in   Clear
4:15 AM 77.0 °F - 77.0 °F 100% 30.00 in 1.2 mi Calm Calm - 0.00 in   Clear
4:35 AM 77.0 °F - 77.0 °F 100% 30.00 in 2.0 mi Calm Calm - 0.00 in   Clear
4:55 AM 77.0 °F - 77.0 °F 100% 30.00 in 2.5 mi Calm Calm - 0.00 in   Clear
5:15 AM 77.0 °F - 77.0 °F 100% 30.01 in 2.0 mi Calm Calm - 0.00 in   Scattered Clouds
5:35 AM 77.0 °F - 77.0 °F 100% 30.02 in 4.0 mi Calm Calm - 0.00 in   Partly Cloudy
6:50 AM 75.2 °F - 75.2 °F 100% 30.04 in 7.0 mi Calm Calm - N/A   Clear
7:45 AM 78.8 °F - 78.8 °F 100% 30.06 in 10.0 mi WSW 5.8 mph - N/A   Scattered Clouds
8:50 AM 80.6 °F 88.1 °F 78.8 °F 94% 30.06 in 10.0 mi SW 4.6 mph - N/A   Scattered Clouds
9:50 AM 84.2 °F 92.3 °F 75.2 °F 74% 30.05 in 10.0 mi Calm Calm - N/A   Scattered Clouds
10:50 AM 86.0 °F 96.9 °F 77.0 °F 74% 30.06 in 10.0 mi West 6.9 mph - N/A   Scattered Clouds
11:50 AM 86.0 °F 96.9 °F 77.0 °F 74% 30.06 in 10.0 mi West 6.9 mph - N/A   Scattered Clouds
1:50 PM 89.6 °F 108.2 °F 80.6 °F 75% 30.03 in 10.0 mi SSE 5.8 mph - N/A   Mostly Cloudy
2:50 PM 86.0 °F 99.3 °F 78.8 °F 79% 30.02 in 5.0 mi SSE 5.8 mph - N/A Rain , Thunderstorm Thunderstorms and Rain
3:10 PM 80.6 °F 88.1 °F 78.8 °F 94% 30.01 in 1.0 mi Calm Calm - N/A Rain , Thunderstorm Heavy Thunderstorms and Rain
3:45 PM 75.2 °F - 73.4 °F 94% 30.01 in 1.0 mi NNW 5.8 mph - N/A Rain , Thunderstorm Heavy Thunderstorms and Rain
4:50 PM 75.2 °F - 75.2 °F 100% 30.00 in 3.0 mi Calm Calm - N/A Rain , Thunderstorm Light Thunderstorms and Rain
5:50 PM 75.2 °F - 73.4 °F 94% 30.03 in 7.0 mi NW 4.6 mph - N/A   Mostly Cloudy
6:50 PM 77.0 °F - 75.2 °F 94% 30.01 in 5.0 mi Calm Calm - N/A   Mostly Cloudy
7:50 PM 77.0 °F - 75.2 °F 94% 29.99 in 10.0 mi Calm Calm - N/A   Scattered Clouds
8:35 PM 75.2 °F - 75.2 °F 100% 29.99 in 4.0 mi SSW 3.5 mph - 0.00 in   Clear
8:55 PM 75.2 °F - 75.2 °F 100% 29.99 in 5.0 mi Calm Calm - 0.00 in   Clear
9:15 PM 75.2 °F - 75.2 °F 100% 30.01 in 3.0 mi South 4.6 mph - 0.00 in   Clear
9:35 PM 75.2 °F - 75.2 °F 100% 30.02 in 5.0 mi Calm Calm - 0.00 in   Clear
9:55 PM 75.2 °F - 75.2 °F 100% 30.03 in 5.0 mi South 3.5 mph - 0.00 in   Clear
10:15 PM 75.2 °F - 75.2 °F 100% 30.03 in 4.0 mi Calm Calm - 0.00 in   Mostly Cloudy
10:35 PM 75.2 °F - 75.2 °F 100% 30.04 in 4.0 mi Calm Calm - 0.00 in   Scattered Clouds
10:55 PM 75.2 °F - 75.2 °F 100% 30.05 in 8.0 mi Calm Calm - 0.00 in   Mostly Cloudy
11:15 PM 75.2 °F - 75.2 °F 100% 30.04 in 4.0 mi Calm Calm - 0.00 in   Partly Cloudy
11:35 PM 75.2 °F - 75.2 °F 100% 30.04 in 3.0 mi Calm Calm - 0.00 in   Clear
11:55 PM 75.2 °F - 75.2 °F 100% 30.04 in 2.5 mi Calm Calm - 0.00 in   Clear